Volver al catálogo

DELTA 1 DEB

LostLEO
NORAD 29182·DEBRIS·🇺🇸 United States

Lanzado Jan 11, 1968 desde Vandenberg Space Force Base

Loading…

Próximos Pases (próximas 24 horas)

TLE

ObsoletoSource: Space-Track

Época: Mar 21, 2024, 08:38 UTC

1 29182U 68002F   24081.36039478  .00001976  00000-0  41233-2 0  9991
2 29182 105.8352 274.7159 0263362 303.6145  54.0068 13.22234020115040

Sigue DELTA 1 DEB en tiempo real con AllMySat

Download on the App Store